Terminal Aerodrome Forecast
Issued by NWS

Home | Current Version | Previous Version | Text Only | Print | Product List | Glossary On
Versions: 1 2 3 4 5 6 7 8 9 10 11 12 13 14
000
FTUS45 KRIW 271700
TAFBPI
TAF
KBPI 271720Z 2718/2818 13010KT 5SM TSRA BR SCT025 BKN060CB
     FM272100 16014G20KT 6SM TSRA SCT020 OVC040CB
     FM280300 12008KT 5SM SHRA VCTS FEW015 OVC035CB
     FM280800 VRB06KT 4SM SHRA BR SCT012 OVC025=

USA.gov is the U.S. government's official web portal to all federal, state and local government web resources and services.